Location: Augsburg
(48.3836°N, 10.8929°E)
Time: 17:09:28
(UTC+02:00)

ISS - Pass Details

Date: 25 May 2021
Orbit: 417 x 422 km, 51.6° (Epoch: 13 June)

Event Time Altitude Azimuth Distance (km) Brightness Sun altitude
Rises 00:35:52 0° 289° (WNW) 2,370 0.5 -20.2°
Reaches altitude 10° 00:38:07 10° 279° (W) 1,504 -0.8 -20.2°
Enters shadow 00:39:29 20° 262° (W) 1,053 -1.8 -20.3°
